Time,TemperatureF,DewpointF,PressureIn,WindDirection,WindDirectionDegrees,WindSpeedMPH,WindSpeedGustMPH,Humidity,HourlyPrecipIn,Conditions,Clouds,dailyrainin,SoftwareType,DateUTC
2013-01-01 00:02:00,38.8,31.2,30.17,NW,315,0.0,0.0,74,0.00,,,0.00,WUHU21623XXSP,2013-01-01 08:02:00,
2013-01-01 00:10:00,38.8,31.6,30.16,NW,315,0.0,0.0,75,0.00,,,0.00,WUHU21623XXSP,2013-01-01 08:10:00,
2013-01-01 00:15:00,39.0,31.7,30.16,NW,315,0.0,0.0,75,0.00,,,0.00,WUHU21623XXSP,2013-01-01 08:15:00,
2013-01-01 00:20:00,39.0,31.7,30.16,NW,315,0.0,0.0,75,0.00,,,0.00,WUHU21623XXSP,2013-01-01 08:20:00,
2013-01-01 00:25:00,39.0,31.7,30.15,NW,315,0.0,0.0,75,0.00,,,0.00,WUHU21623XXSP,2013-01-01 08:25:00,
2013-01-01 00:30:00,39.0,31.7,30.16,NW,315,0.0,0.0,75,0.00,,,0.00,WUHU21623XXSP,2013-01-01 08:30:00,
2013-01-01 00:35:00,39.2,31.9,30.16,NW,315,0.0,0.0,75,0.00,,,0.00,WUHU21623XXSP,2013-01-01 08:35:00,
2013-01-01 00:40:00,39.4,32.1,30.15,NW,315,0.0,0.0,75,0.00,,,0.00,WUHU21623XXSP,2013-01-01 08:40:00,
2013-01-01 00:45:00,39.4,32.4,30.15,NW,315,0.0,0.0,76,0.00,,,0.00,WUHU21623XXSP,2013-01-01 08:45:00,
2013-01-01 00:50:00,39.4,32.4,30.15,NW,315,0.0,0.0,76,0.00,,,0.00,WUHU21623XXSP,2013-01-01 08:50:00,
2013-01-01 00:55:00,39.4,32.1,30.15,NW,315,0.0,0.0,75,0.00,,,0.00,WUHU21623XXSP,2013-01-01 08:55:00,
2013-01-01 01:00:00,39.4,32.1,30.15,NW,315,0.0,0.0,75,0.00,,,0.00,WUHU21623XXSP,2013-01-01 09:00:00,
2013-01-01 01:05:00,39.4,32.1,30.15,NW,315,0.0,0.0,75,0.00,,,0.00,WUHU21623XXSP,2013-01-01 09:05:00,
2013-01-01 01:14:00,39.4,32.1,30.15,NW,315,0.0,0.0,75,0.00,,,0.00,WUHU21623XXSP,2013-01-01 09:14:00,
2013-01-01 01:19:00,39.0,32.1,30.15,NW,315,0.0,0.0,76,0.00,,,0.00,WUHU21623XXSP,2013-01-01 09:19:00,
2013-01-01 01:24:00,39.0,32.1,30.15,NW,315,0.0,0.0,76,0.00,,,0.00,WUHU21623XXSP,2013-01-01 09:24:00,
2013-01-01 01:29:00,39.0,32.1,30.15,NW,315,0.0,0.0,76,0.00,,,0.00,WUHU21623XXSP,2013-01-01 09:29:00,
2013-01-01 01:34:00,38.8,31.9,30.15,NW,315,0.0,0.0,76,0.00,,,0.00,WUHU21623XXSP,2013-01-01 09:34:00,
2013-01-01 01:39:00,39.0,32.1,30.15,NW,315,0.0,0.0,76,0.00,,,0.00,WUHU21623XXSP,2013-01-01 09:39:00,
2013-01-01 01:44:00,39.0,32.1,30.15,NW,315,0.0,0.0,76,0.00,,,0.00,WUHU21623XXSP,2013-01-01 09:44:00,
2013-01-01 01:49:00,39.0,32.1,30.15,NW,315,0.0,0.0,76,0.00,,,0.00,WUHU21623XXSP,2013-01-01 09:49:00,
2013-01-01 01:54:00,39.0,32.1,30.15,NW,315,0.0,0.0,76,0.00,,,0.00,WUHU21623XXSP,2013-01-01 09:54:00,
2013-01-01 01:59:00,39.0,32.1,30.15,NW,315,0.0,0.0,76,0.00,,,0.00,WUHU21623XXSP,2013-01-01 09:59:00,
2013-01-01 02:04:00,39.0,32.1,30.15,NW,315,0.0,0.0,76,0.00,,,0.00,WUHU21623XXSP,2013-01-01 10:04:00,
2013-01-01 02:09:00,39.0,32.1,30.15,NW,315,0.0,0.0,76,0.00,,,0.00,WUHU21623XXSP,2013-01-01 10:09:00,
2013-01-01 02:14:00,39.0,32.1,30.15,NW,315,0.0,0.0,76,0.00,,,0.00,WUHU21623XXSP,2013-01-01 10:14:00,
2013-01-01 02:19:00,39.2,32.3,30.14,NW,315,0.0,0.0,76,0.00,,,0.00,WUHU21623XXSP,2013-01-01 10:19:00,
2013-01-01 02:24:00,39.4,32.4,30.14,NW,315,0.0,0.0,76,0.00,,,0.00,WUHU21623XXSP,2013-01-01 10:24:00,
2013-01-01 02:29:00,39.4,32.4,30.14,NW,315,0.0,0.0,76,0.00,,,0.00,WUHU21623XXSP,2013-01-01 10:29:00,
2013-01-01 02:34:00,39.4,32.4,30.14,NW,315,0.0,0.0,76,0.00,,,0.00,WUHU21623XXSP,2013-01-01 10:34:00,
2013-01-01 02:39:00,39.4,32.4,30.15,NW,315,0.0,0.0,76,0.00,,,0.00,WUHU21623XXSP,2013-01-01 10:39:00,
2013-01-01 02:44:00,39.4,32.8,30.14,NW,315,0.0,0.0,77,0.00,,,0.00,WUHU21623XXSP,2013-01-01 10:44:00,
2013-01-01 02:49:00,39.6,32.9,30.14,NW,315,0.0,0.0,77,0.00,,,0.00,WUHU21623XXSP,2013-01-01 10:49:00,
2013-01-01 02:54:00,39.6,32.9,30.13,NW,315,0.0,0.0,77,0.00,,,0.00,WUHU21623XXSP,2013-01-01 10:54:00,
2013-01-01 02:59:00,39.7,33.1,30.13,NW,315,0.0,0.0,77,0.00,,,0.00,WUHU21623XXSP,2013-01-01 10:59:00,
2013-01-01 03:04:00,39.7,33.1,30.13,NW,315,0.0,0.0,77,0.00,,,0.00,WUHU21623XXSP,2013-01-01 11:04:00,
2013-01-01 03:09:00,39.7,33.1,30.13,NW,315,0.0,0.0,77,0.00,,,0.00,WUHU21623XXSP,2013-01-01 11:09:00,
2013-01-01 03:15:00,39.6,32.9,30.13,NW,315,0.0,0.0,77,0.00,,,0.00,WUHU21623XXSP,2013-01-01 11:15:00,
2013-01-01 03:20:00,39.4,32.8,30.14,NW,315,0.0,0.0,77,0.00,,,0.00,WUHU21623XXSP,2013-01-01 11:20:00,
2013-01-01 03:25:00,39.4,32.8,30.13,NW,315,0.0,0.0,77,0.00,,,0.00,WUHU21623XXSP,2013-01-01 11:25:00,
2013-01-01 03:30:00,39.4,32.8,30.13,NW,315,0.0,0.0,77,0.00,,,0.00,WUHU21623XXSP,2013-01-01 11:30:00,
2013-01-01 03:35:00,39.4,33.1,30.13,NW,315,0.0,0.0,78,0.00,,,0.00,WUHU21623XXSP,2013-01-01 11:35:00,
2013-01-01 03:40:00,39.4,33.1,30.13,NW,315,0.0,0.0,78,0.00,,,0.00,WUHU21623XXSP,2013-01-01 11:40:00,
2013-01-01 03:45:00,39.4,33.1,30.14,NW,315,0.0,0.0,78,0.00,,,0.00,WUHU21623XXSP,2013-01-01 11:45:00,
2013-01-01 03:50:00,39.0,32.4,30.14,NW,315,0.0,0.0,77,0.00,,,0.00,WUHU21623XXSP,2013-01-01 11:50:00,
2013-01-01 03:55:00,39.0,32.4,30.13,NW,315,0.0,0.0,77,0.00,,,0.00,WUHU21623XXSP,2013-01-01 11:55:00,
2013-01-01 04:00:00,39.0,32.4,30.13,NW,315,0.0,0.0,77,0.00,,,0.00,WUHU21623XXSP,2013-01-01 12:00:00,
2013-01-01 04:05:00,38.8,32.2,30.13,NW,315,0.0,0.0,77,0.00,,,0.00,WUHU21623XXSP,2013-01-01 12:05:00,
2013-01-01 04:10:00,38.8,32.2,30.13,NW,315,0.0,0.0,77,0.00,,,0.00,WUHU21623XXSP,2013-01-01 12:10:00,
2013-01-01 04:15:00,38.5,31.9,30.12,NW,315,0.0,0.0,77,0.00,,,0.00,WUHU21623XXSP,2013-01-01 12:15:00,
2013-01-01 04:20:00,38.5,32.2,30.13,NW,315,0.0,0.0,78,0.00,,,0.00,WUHU21623XXSP,2013-01-01 12:20:00,
2013-01-01 04:25:00,38.5,32.2,30.12,NW,315,0.0,0.0,78,0.00,,,0.00,WUHU21623XXSP,2013-01-01 12:25:00,
2013-01-01 04:30:00,38.5,32.2,30.12,NW,315,0.0,0.0,78,0.00,,,0.00,WUHU21623XXSP,2013-01-01 12:30:00,
2013-01-01 04:35:00,38.5,32.2,30.12,NW,315,0.0,0.0,78,0.00,,,0.00,WUHU21623XXSP,2013-01-01 12:35:00,
2013-01-01 04:40:00,38.3,32.1,30.12,NW,315,0.0,0.0,78,0.00,,,0.00,WUHU21623XXSP,2013-01-01 12:40:00,
2013-01-01 04:45:00,38.1,31.9,30.12,NW,315,0.0,0.0,78,0.00,,,0.00,WUHU21623XXSP,2013-01-01 12:45:00,
2013-01-01 04:50:00,38.1,31.9,30.12,NW,315,0.0,0.0,78,0.00,,,0.00,WUHU21623XXSP,2013-01-01 12:50:00,
2013-01-01 04:55:00,37.9,32.0,30.12,NW,315,0.0,0.0,79,0.00,,,0.00,WUHU21623XXSP,2013-01-01 12:55:00,
2013-01-01 05:00:00,37.9,32.0,30.12,NW,315,0.0,0.0,79,0.00,,,0.00,WUHU21623XXSP,2013-01-01 13:00:00,
2013-01-01 05:05:00,37.9,32.0,30.13,NW,315,0.0,0.0,79,0.00,,,0.00,WUHU21623XXSP,2013-01-01 13:05:00,
2013-01-01 05:10:00,37.9,32.0,30.12,NW,315,0.0,0.0,79,0.00,,,0.00,WUHU21623XXSP,2013-01-01 13:10:00,
2013-01-01 05:15:00,37.9,32.0,30.13,NW,315,0.0,0.0,79,0.00,,,0.00,WUHU21623XXSP,2013-01-01 13:15:00,
2013-01-01 05:20:00,37.9,32.0,30.13,NW,315,0.0,0.0,79,0.00,,,0.00,WUHU21623XXSP,2013-01-01 13:20:00,
2013-01-01 05:25:00,37.9,32.0,30.12,NW,315,0.0,0.0,79,0.00,,,0.00,WUHU21623XXSP,2013-01-01 13:25:00,
2013-01-01 05:30:00,37.9,32.4,30.13,NW,315,0.0,0.0,80,0.00,,,0.00,WUHU21623XXSP,2013-01-01 13:30:00,
2013-01-01 05:35:00,37.9,32.4,30.12,NW,315,0.0,0.0,80,0.00,,,0.00,WUHU21623XXSP,2013-01-01 13:35:00,
2013-01-01 05:40:00,37.9,32.0,30.12,NW,315,0.0,0.0,79,0.00,,,0.00,WUHU21623XXSP,2013-01-01 13:40:00,
2013-01-01 05:45:00,37.9,32.0,30.12,NW,315,0.0,0.0,79,0.00,,,0.00,WUHU21623XXSP,2013-01-01 13:45:00,
2013-01-01 05:50:00,37.9,32.4,30.12,NW,315,0.0,0.0,80,0.00,,,0.00,WUHU21623XXSP,2013-01-01 13:50:00,
2013-01-01 05:55:00,37.9,32.4,30.12,NW,315,0.0,0.0,80,0.00,,,0.00,WUHU21623XXSP,2013-01-01 13:55:00,
2013-01-01 06:00:00,37.9,32.4,30.12,NW,315,0.0,0.0,80,0.00,,,0.00,WUHU21623XXSP,2013-01-01 14:00:00,
2013-01-01 06:05:00,38.1,32.5,30.12,NW,315,0.0,0.0,80,0.00,,,0.00,WUHU21623XXSP,2013-01-01 14:05:00,
2013-01-01 06:10:00,38.1,32.5,30.12,NW,315,0.0,0.0,80,0.00,,,0.00,WUHU21623XXSP,2013-01-01 14:10:00,
2013-01-01 06:15:00,37.9,32.4,30.12,NW,315,0.0,0.0,80,0.00,,,0.00,WUHU21623XXSP,2013-01-01 14:15:00,
2013-01-01 06:20:00,37.9,32.4,30.12,NW,315,0.0,0.0,80,0.00,,,0.00,WUHU21623XXSP,2013-01-01 14:20:00,
2013-01-01 06:26:00,37.9,32.4,30.13,NW,315,0.0,0.0,80,0.00,,,0.00,WUHU21623XXSP,2013-01-01 14:26:00,
2013-01-01 06:31:00,37.9,32.4,30.13,NW,315,0.0,0.0,80,0.00,,,0.00,WUHU21623XXSP,2013-01-01 14:31:00,
2013-01-01 06:36:00,37.9,32.4,30.13,NW,315,0.0,0.0,80,0.00,,,0.00,WUHU21623XXSP,2013-01-01 14:36:00,
2013-01-01 06:41:00,37.8,32.2,30.13,NW,315,0.0,0.0,80,0.00,,,0.00,WUHU21623XXSP,2013-01-01 14:41:00,
2013-01-01 06:46:00,37.6,32.0,30.13,NW,315,0.0,0.0,80,0.00,,,0.00,WUHU21623XXSP,2013-01-01 14:46:00,
2013-01-01 06:51:00,37.6,32.0,30.13,NW,315,0.0,0.0,80,0.00,,,0.00,WUHU21623XXSP,2013-01-01 14:51:00,
2013-01-01 06:56:00,37.6,32.0,30.14,NW,315,0.0,0.0,80,0.00,,,0.00,WUHU21623XXSP,2013-01-01 14:56:00,
2013-01-01 07:01:00,37.6,32.0,30.14,NW,315,0.0,0.0,80,0.00,,,0.00,WUHU21623XXSP,2013-01-01 15:01:00,
2013-01-01 07:06:00,37.9,32.6,30.14,NW,315,0.0,0.0,81,0.00,,,0.00,WUHU21623XXSP,2013-01-01 15:06:00,
2013-01-01 07:11:00,38.1,32.8,30.14,NW,315,0.0,0.0,81,0.00,,,0.00,WUHU21623XXSP,2013-01-01 15:11:00,
2013-01-01 07:16:00,38.3,33.0,30.13,NW,315,0.0,0.0,81,0.00,,,0.00,WUHU21623XXSP,2013-01-01 15:16:00,
2013-01-01 07:21:00,38.8,33.5,30.13,NW,315,0.0,0.0,81,0.00,,,0.00,WUHU21623XXSP,2013-01-01 15:21:00,
2013-01-01 07:26:00,38.8,33.5,30.13,NW,315,0.0,0.0,81,0.00,,,0.00,WUHU21623XXSP,2013-01-01 15:26:00,
2013-01-01 07:31:00,39.0,33.7,30.14,NW,315,0.0,0.0,81,0.00,,,0.00,WUHU21623XXSP,2013-01-01 15:31:00,
2013-01-01 07:36:00,39.4,34.1,30.14,NW,315,0.0,0.0,81,0.00,,,0.00,WUHU21623XXSP,2013-01-01 15:36:00,
2013-01-01 07:41:00,39.7,34.2,30.14,NW,315,0.0,0.0,81,0.00,,,0.00,WUHU21623XXSP,2013-01-01 15:41:00,
2013-01-01 07:46:00,39.9,34.6,30.14,NW,315,0.0,0.0,81,0.00,,,0.00,WUHU21623XXSP,2013-01-01 15:46:00,
2013-01-01 07:51:00,40.3,34.9,30.14,NW,315,0.0,0.0,81,0.00,,,0.00,WUHU21623XXSP,2013-01-01 15:51:00,
2013-01-01 07:56:00,40.6,35.2,30.15,NW,315,0.0,0.0,81,0.00,,,0.00,WUHU21623XXSP,2013-01-01 15:56:00,
2013-01-01 08:01:00,41.0,35.5,30.14,NW,315,0.0,0.0,81,0.00,,,0.00,WUHU21623XXSP,2013-01-01 16:01:00,
2013-01-01 08:06:00,41.5,35.8,30.15,NW,315,0.0,0.0,80,0.00,,,0.00,WUHU21623XXSP,2013-01-01 16:06:00,
2013-01-01 08:11:00,41.7,36.3,30.15,NW,315,0.0,0.0,81,0.00,,,0.00,WUHU21623XXSP,2013-01-01 16:11:00,
2013-01-01 08:16:00,42.1,36.6,30.15,NW,315,0.0,0.0,81,0.00,,,0.00,WUHU21623XXSP,2013-01-01 16:16:00,
2013-01-01 08:21:00,42.6,36.9,30.15,NW,315,0.0,0.0,80,0.00,,,0.00,WUHU21623XXSP,2013-01-01 16:21:00,
2013-01-01 08:26:00,43.0,37.2,30.15,NW,315,0.0,0.0,80,0.00,,,0.00,WUHU21623XXSP,2013-01-01 16:26:00,
2013-01-01 08:31:00,43.2,37.4,30.15,NW,315,0.0,0.0,80,0.00,,,0.00,WUHU21623XXSP,2013-01-01 16:31:00,
2013-01-01 08:36:00,43.7,37.9,30.15,NW,315,0.0,0.0,80,0.00,,,0.00,WUHU21623XXSP,2013-01-01 16:36:00,
2013-01-01 08:41:00,44.1,38.3,30.15,NW,315,0.0,0.0,80,0.00,,,0.00,WUHU21623XXSP,2013-01-01 16:41:00,
2013-01-01 08:46:00,44.4,38.7,30.15,NW,315,0.0,0.0,80,0.00,,,0.00,WUHU21623XXSP,2013-01-01 16:46:00,
2013-01-01 08:51:00,45.0,39.2,30.16,NW,315,0.0,0.0,80,0.00,,,0.00,WUHU21623XXSP,2013-01-01 16:51:00,
2013-01-01 08:56:00,45.5,39.7,30.16,NW,315,0.0,0.0,80,0.00,,,0.00,WUHU21623XXSP,2013-01-01 16:56:00,
2013-01-01 09:01:00,45.7,39.6,30.16,NW,315,0.0,0.0,79,0.00,,,0.00,WUHU21623XXSP,2013-01-01 17:01:00,
2013-01-01 09:06:00,46.2,40.1,30.17,NW,315,0.0,0.0,79,0.00,,,0.00,WUHU21623XXSP,2013-01-01 17:06:00,
2013-01-01 09:11:00,46.6,40.5,30.16,NW,315,0.0,0.0,79,0.00,,,0.00,WUHU21623XXSP,2013-01-01 17:11:00,
2013-01-01 09:16:00,46.9,40.4,30.16,NW,315,0.0,0.0,78,0.00,,,0.00,WUHU21623XXSP,2013-01-01 17:16:00,
2013-01-01 09:21:00,47.5,40.9,30.15,NW,315,0.0,0.0,78,0.00,,,0.00,WUHU21623XXSP,2013-01-01 17:21:00,
2013-01-01 09:26:00,48.4,41.4,30.15,NW,315,0.0,0.0,77,0.00,,,0.00,WUHU21623XXSP,2013-01-01 17:26:00,
2013-01-01 09:31:00,49.8,42.9,30.15,SSW,202,0.0,0.0,77,0.00,,,0.00,WUHU21623XXSP,2013-01-01 17:31:00,
2013-01-01 09:36:00,50.7,43.1,30.15,SSW,202,0.0,0.0,75,0.00,,,0.00,WUHU21623XXSP,2013-01-01 17:36:00,
2013-01-01 09:41:00,51.6,43.6,30.15,SSW,202,0.0,0.0,74,0.00,,,0.00,WUHU21623XXSP,2013-01-01 17:41:00,
2013-01-01 09:46:00,52.5,44.1,30.15,SSW,202,0.0,0.0,73,0.00,,,0.00,WUHU21623XXSP,2013-01-01 17:46:00,
2013-01-01 09:51:00,53.8,44.9,30.15,SSE,157,0.0,0.0,72,0.00,,,0.00,WUHU21623XXSP,2013-01-01 17:51:00,
2013-01-01 09:57:00,54.3,45.1,30.15,South,180,0.0,0.0,71,0.00,,,0.00,WUHU21623XXSP,2013-01-01 17:57:00,
2013-01-01 10:02:00,54.9,44.9,30.15,SSE,157,0.0,0.0,69,0.00,,,0.00,WUHU21623XXSP,2013-01-01 18:02:00,
2013-01-01 10:07:00,55.0,44.7,30.15,SSW,202,0.0,0.0,68,0.00,,,0.00,WUHU21623XXSP,2013-01-01 18:07:00,
2013-01-01 10:12:00,55.0,44.7,30.14,South,180,0.0,0.0,68,0.00,,,0.00,WUHU21623XXSP,2013-01-01 18:12:00,
2013-01-01 10:17:00,55.0,44.3,30.14,South,180,0.0,0.0,67,0.00,,,0.00,WUHU21623XXSP,2013-01-01 18:17:00,
2013-01-01 10:22:00,54.7,43.9,30.14,South,180,0.0,0.0,67,0.00,,,0.00,WUHU21623XXSP,2013-01-01 18:22:00,
2013-01-01 10:27:00,55.2,44.0,30.14,South,180,0.0,0.0,66,0.00,,,0.00,WUHU21623XXSP,2013-01-01 18:27:00,
2013-01-01 10:32:00,56.3,44.6,30.14,South,180,0.0,0.0,65,0.00,,,0.00,WUHU21623XXSP,2013-01-01 18:32:00,
2013-01-01 10:37:00,57.0,44.5,30.14,NE,45,0.0,0.0,63,0.00,,,0.00,WUHU21623XXSP,2013-01-01 18:37:00,
2013-01-01 10:42:00,57.4,44.5,30.14,SE,135,0.0,0.0,62,0.00,,,0.00,WUHU21623XXSP,2013-01-01 18:42:00,
2013-01-01 10:47:00,58.1,44.3,30.14,SE,135,0.0,0.0,60,0.00,,,0.00,WUHU21623XXSP,2013-01-01 18:47:00,
2013-01-01 10:52:00,58.5,43.7,30.14,South,180,0.0,0.0,58,0.00,,,0.00,WUHU21623XXSP,2013-01-01 18:52:00,
2013-01-01 10:57:00,58.6,43.9,30.14,South,180,0.0,0.0,58,0.00,,,0.00,WUHU21623XXSP,2013-01-01 18:57:00,
2013-01-01 11:02:00,58.8,43.6,30.13,SSE,157,0.0,0.0,57,0.00,,,0.00,WUHU21623XXSP,2013-01-01 19:02:00,
2013-01-01 11:07:00,58.6,43.4,30.13,SSE,157,0.0,0.0,57,0.00,,,0.00,WUHU21623XXSP,2013-01-01 19:07:00,
2013-01-01 11:12:00,58.6,43.4,30.13,SSE,157,0.0,0.0,57,0.00,,,0.00,WUHU21623XXSP,2013-01-01 19:12:00,
2013-01-01 11:17:00,58.5,42.8,30.12,ESE,112,0.0,0.0,56,0.00,,,0.00,WUHU21623XXSP,2013-01-01 19:17:00,
2013-01-01 11:22:00,58.3,42.6,30.12,South,180,0.0,0.0,56,0.00,,,0.00,WUHU21623XXSP,2013-01-01 19:22:00,
2013-01-01 11:27:00,57.9,42.3,30.12,South,180,0.0,0.0,56,0.00,,,0.00,WUHU21623XXSP,2013-01-01 19:27:00,
2013-01-01 11:32:00,57.7,41.7,30.12,South,180,0.0,0.0,55,0.00,,,0.00,WUHU21623XXSP,2013-01-01 19:32:00,
2013-01-01 11:37:00,57.7,42.1,30.11,South,180,0.0,0.0,56,0.00,,,0.00,WUHU21623XXSP,2013-01-01 19:37:00,
2013-01-01 11:42:00,57.6,41.0,30.11,South,180,0.0,0.0,54,0.00,,,0.00,WUHU21623XXSP,2013-01-01 19:42:00,
2013-01-01 11:47:00,57.6,40.6,30.10,South,180,0.0,0.0,53,0.00,,,0.00,WUHU21623XXSP,2013-01-01 19:47:00,
2013-01-01 11:52:00,57.7,41.2,30.10,NE,45,0.0,0.0,54,0.00,,,0.00,WUHU21623XXSP,2013-01-01 19:52:00,
2013-01-01 11:57:00,57.9,40.9,30.10,South,180,0.0,0.0,53,0.00,,,0.00,WUHU21623XXSP,2013-01-01 19:57:00,
2013-01-01 12:02:00,58.1,40.6,30.09,SW,225,0.0,0.0,52,0.00,,,0.00,WUHU21623XXSP,2013-01-01 20:02:00,
2013-01-01 12:07:00,58.3,40.7,30.09,SW,225,0.0,0.0,52,0.00,,,0.00,WUHU21623XXSP,2013-01-01 20:07:00,
2013-01-01 12:12:00,58.6,41.1,30.08,WSW,247,0.0,0.0,52,0.00,,,0.00,WUHU21623XXSP,2013-01-01 20:12:00,
2013-01-01 12:17:00,58.8,41.7,30.08,WSW,247,0.0,0.0,53,0.00,,,0.00,WUHU21623XXSP,2013-01-01 20:17:00,
2013-01-01 12:22:00,59.2,41.6,30.08,WNW,292,0.0,0.0,52,0.00,,,0.00,WUHU21623XXSP,2013-01-01 20:22:00,
2013-01-01 12:27:00,59.5,41.9,30.07,West,270,0.0,0.0,52,0.00,,,0.00,WUHU21623XXSP,2013-01-01 20:27:00,
2013-01-01 12:32:00,59.9,42.2,30.07,South,180,0.0,0.0,52,0.00,,,0.00,WUHU21623XXSP,2013-01-01 20:32:00,
2013-01-01 12:37:00,60.1,42.4,30.06,SE,135,0.0,0.0,52,0.00,,,0.00,WUHU21623XXSP,2013-01-01 20:37:00,
2013-01-01 12:42:00,60.6,42.4,30.06,SSE,157,0.0,0.0,51,0.00,,,0.00,WUHU21623XXSP,2013-01-01 20:42:00,
2013-01-01 12:47:00,60.6,42.4,30.06,SSE,157,0.0,0.0,51,0.00,,,0.00,WUHU21623XXSP,2013-01-01 20:47:00,
2013-01-01 12:52:00,60.6,42.4,30.06,South,180,0.0,0.0,51,0.00,,,0.00,WUHU21623XXSP,2013-01-01 20:52:00,
2013-01-01 12:57:00,60.6,42.4,30.05,SSE,157,0.0,0.0,51,0.00,,,0.00,WUHU21623XXSP,2013-01-01 20:57:00,
2013-01-01 13:02:00,61.2,42.4,30.05,SW,225,0.0,0.0,50,0.00,,,0.00,WUHU21623XXSP,2013-01-01 21:02:00,
2013-01-01 13:07:00,61.2,41.8,30.05,SSW,202,0.0,0.0,49,0.00,,,0.00,WUHU21623XXSP,2013-01-01 21:07:00,
2013-01-01 13:12:00,61.5,42.2,30.05,South,180,0.0,0.0,49,0.00,,,0.00,WUHU21623XXSP,2013-01-01 21:12:00,
2013-01-01 13:17:00,61.3,42.0,30.05,South,180,0.0,0.0,49,0.00,,,0.00,WUHU21623XXSP,2013-01-01 21:17:00,
2013-01-01 13:22:00,61.5,42.2,30.05,SSE,157,0.0,0.0,49,0.00,,,0.00,WUHU21623XXSP,2013-01-01 21:22:00,
2013-01-01 13:27:00,61.7,42.3,30.05,South,180,0.0,0.0,49,0.00,,,0.00,WUHU21623XXSP,2013-01-01 21:27:00,
2013-01-01 13:32:00,61.9,42.5,30.05,SSE,157,0.0,0.0,49,0.00,,,0.00,WUHU21623XXSP,2013-01-01 21:32:00,
2013-01-01 13:37:00,62.1,42.1,30.05,SSE,157,0.0,0.0,48,0.00,,,0.00,WUHU21623XXSP,2013-01-01 21:37:00,
2013-01-01 13:43:00,61.9,41.9,30.05,SSE,157,0.0,0.0,48,0.00,,,0.00,WUHU21623XXSP,2013-01-01 21:43:00,
2013-01-01 13:48:00,61.5,41.6,30.04,South,180,0.0,0.0,48,0.00,,,0.00,WUHU21623XXSP,2013-01-01 21:48:00,
2013-01-01 13:53:00,61.5,41.6,30.05,South,180,0.0,0.0,48,0.00,,,0.00,WUHU21623XXSP,2013-01-01 21:53:00,
2013-01-01 13:58:00,61.5,41.6,30.04,SE,135,0.0,0.0,48,0.00,,,0.00,WUHU21623XXSP,2013-01-01 21:58:00,
2013-01-01 14:03:00,61.5,41.6,30.04,SE,135,0.0,0.0,48,0.00,,,0.00,WUHU21623XXSP,2013-01-01 22:03:00,
2013-01-01 14:08:00,61.9,41.9,30.04,SSW,202,0.0,0.0,48,0.00,,,0.00,WUHU21623XXSP,2013-01-01 22:08:00,
2013-01-01 14:13:00,62.2,42.2,30.04,WNW,292,0.0,0.0,48,0.00,,,0.00,WUHU21623XXSP,2013-01-01 22:13:00,
2013-01-01 14:18:00,62.4,41.8,30.04,SW,225,0.0,0.0,47,0.00,,,0.00,WUHU21623XXSP,2013-01-01 22:18:00,
2013-01-01 14:23:00,62.6,42.0,30.04,WSW,247,0.0,0.0,47,0.00,,,0.00,WUHU21623XXSP,2013-01-01 22:23:00,
2013-01-01 14:28:00,62.8,41.6,30.04,South,180,0.0,0.0,46,0.00,,,0.00,WUHU21623XXSP,2013-01-01 22:28:00,
2013-01-01 14:33:00,63.1,42.5,30.04,SSW,202,0.0,0.0,47,0.00,,,0.00,WUHU21623XXSP,2013-01-01 22:33:00,
2013-01-01 14:38:00,63.1,41.3,30.04,SSW,202,0.0,0.0,45,0.00,,,0.00,WUHU21623XXSP,2013-01-01 22:38:00,
2013-01-01 14:43:00,63.1,41.9,30.04,SSW,202,0.0,0.0,46,0.00,,,0.00,WUHU21623XXSP,2013-01-01 22:43:00,
2013-01-01 14:48:00,63.0,41.7,30.04,SSW,202,0.0,0.0,46,0.00,,,0.00,WUHU21623XXSP,2013-01-01 22:48:00,
2013-01-01 14:53:00,62.8,41.6,30.04,SSW,202,0.0,0.0,46,0.00,,,0.00,WUHU21623XXSP,2013-01-01 22:53:00,
2013-01-01 14:58:00,62.4,41.2,30.04,West,270,0.0,0.0,46,0.00,,,0.00,WUHU21623XXSP,2013-01-01 22:58:00,
2013-01-01 15:03:00,61.9,40.7,30.04,WNW,292,0.0,0.0,46,0.00,,,0.00,WUHU21623XXSP,2013-01-01 23:03:00,
2013-01-01 15:08:00,61.0,39.9,30.04,WSW,247,0.0,0.0,46,0.00,,,0.00,WUHU21623XXSP,2013-01-01 23:08:00,
2013-01-01 15:13:00,60.6,39.6,30.04,WSW,247,0.0,0.0,46,0.00,,,0.00,WUHU21623XXSP,2013-01-01 23:13:00,
2013-01-01 15:18:00,60.1,39.1,30.04,West,270,0.0,0.0,46,0.00,,,0.00,WUHU21623XXSP,2013-01-01 23:18:00,
2013-01-01 15:23:00,59.4,39.1,30.04,West,270,0.0,0.0,47,0.00,,,0.00,WUHU21623XXSP,2013-01-01 23:23:00,
2013-01-01 15:28:00,58.8,38.6,30.04,WSW,247,0.0,0.0,47,0.00,,,0.00,WUHU21623XXSP,2013-01-01 23:28:00,
2013-01-01 15:33:00,58.8,38.6,30.05,WSW,247,0.0,0.0,47,0.00,,,0.00,WUHU21623XXSP,2013-01-01 23:33:00,
2013-01-01 15:38:00,58.3,38.7,30.04,WSW,247,0.0,0.0,48,0.00,,,0.00,WUHU21623XXSP,2013-01-01 23:38:00,
2013-01-01 15:43:00,58.1,38.5,30.04,WSW,247,0.0,0.0,48,0.00,,,0.00,WUHU21623XXSP,2013-01-01 23:43:00,
2013-01-01 15:48:00,57.9,38.3,30.04,West,270,0.0,0.0,48,0.00,,,0.00,WUHU21623XXSP,2013-01-01 23:48:00,
2013-01-01 15:53:00,57.6,38.0,30.05,SW,225,0.0,0.0,48,0.00,,,0.00,WUHU21623XXSP,2013-01-01 23:53:00,
2013-01-01 15:58:00,57.4,37.9,30.05,WSW,247,0.0,0.0,48,0.00,,,0.00,WUHU21623XXSP,2013-01-01 23:58:00,
2013-01-01 16:03:00,57.0,38.1,30.05,SW,225,0.0,0.0,49,0.00,,,0.00,WUHU21623XXSP,2013-01-02 00:03:00,
2013-01-01 16:08:00,56.8,37.9,30.05,WSW,247,0.0,0.0,49,0.00,,,0.00,WUHU21623XXSP,2013-01-02 00:08:00,
2013-01-01 16:13:00,56.5,37.5,30.05,WSW,247,0.0,0.0,49,0.00,,,0.00,WUHU21623XXSP,2013-01-02 00:13:00,
2013-01-01 16:18:00,56.5,37.5,30.05,WSW,247,0.0,0.0,49,0.00,,,0.00,WUHU21623XXSP,2013-01-02 00:18:00,
2013-01-01 16:23:00,56.1,37.8,30.05,WSW,247,0.0,0.0,50,0.00,,,0.00,WUHU21623XXSP,2013-01-02 00:23:00,
2013-01-01 16:28:00,55.9,37.6,30.05,WSW,247,0.0,0.0,50,0.00,,,0.00,WUHU21623XXSP,2013-01-02 00:28:00,
2013-01-01 16:33:00,55.6,37.2,30.05,WSW,247,0.0,0.0,50,0.00,,,0.00,WUHU21623XXSP,2013-01-02 00:33:00,
2013-01-01 16:38:00,55.4,37.0,30.05,WSW,247,0.0,0.0,50,0.00,,,0.00,WUHU21623XXSP,2013-01-02 00:38:00,
2013-01-01 16:43:00,55.2,36.9,30.05,WSW,247,0.0,0.0,50,0.00,,,0.00,WUHU21623XXSP,2013-01-02 00:43:00,
2013-01-01 16:48:00,55.0,37.2,30.05,WSW,247,0.0,0.0,51,0.00,,,0.00,WUHU21623XXSP,2013-01-02 00:48:00,
2013-01-01 16:53:00,54.7,36.9,30.05,WSW,247,0.0,0.0,51,0.00,,,0.00,WUHU21623XXSP,2013-01-02 00:53:00,
2013-01-01 16:58:00,54.5,36.7,30.05,WSW,247,0.0,0.0,51,0.00,,,0.00,WUHU21623XXSP,2013-01-02 00:58:00,
2013-01-01 17:03:00,54.1,36.4,30.05,WSW,247,0.0,0.0,51,0.00,,,0.00,WUHU21623XXSP,2013-01-02 01:03:00,
2013-01-01 17:09:00,54.1,36.8,30.05,WSW,247,0.0,0.0,52,0.00,,,0.00,WUHU21623XXSP,2013-01-02 01:09:00,
2013-01-01 17:13:00,53.8,36.7,30.05,WSW,247,0.0,0.0,52,0.00,,,0.00,WUHU21623XXSP,2013-01-02 01:13:00,
2013-01-01 17:19:00,53.4,36.2,30.05,WSW,247,0.0,0.0,52,0.00,,,0.00,WUHU21623XXSP,2013-01-02 01:19:00,
2013-01-01 17:24:00,53.4,36.6,30.05,WSW,247,0.0,0.0,53,0.00,,,0.00,WUHU21623XXSP,2013-01-02 01:24:00,
2013-01-01 17:29:00,53.2,36.5,30.05,WSW,247,0.0,0.0,53,0.00,,,0.00,WUHU21623XXSP,2013-01-02 01:29:00,
2013-01-01 17:34:00,52.9,36.1,30.06,WSW,247,0.0,0.0,53,0.00,,,0.00,WUHU21623XXSP,2013-01-02 01:34:00,
2013-01-01 17:39:00,52.7,36.0,30.06,WSW,247,0.0,0.0,53,0.00,,,0.00,WUHU21623XXSP,2013-01-02 01:39:00,
2013-01-01 17:44:00,52.5,35.8,30.05,WSW,247,0.0,0.0,53,0.00,,,0.00,WUHU21623XXSP,2013-01-02 01:44:00,
2013-01-01 17:49:00,52.3,36.1,30.06,WSW,247,0.0,0.0,54,0.00,,,0.00,WUHU21623XXSP,2013-01-02 01:49:00,
2013-01-01 17:54:00,52.2,35.9,30.06,WSW,247,0.0,0.0,54,0.00,,,0.00,WUHU21623XXSP,2013-01-02 01:54:00,
2013-01-01 17:59:00,52.0,36.2,30.06,WSW,247,0.0,0.0,55,0.00,,,0.00,WUHU21623XXSP,2013-01-02 01:59:00,
2013-01-01 18:04:00,51.8,36.0,30.06,WSW,247,0.0,0.0,55,0.00,,,0.00,WUHU21623XXSP,2013-01-02 02:04:00,
2013-01-01 18:09:00,51.6,36.3,30.06,WSW,247,0.0,0.0,56,0.00,,,0.00,WUHU21623XXSP,2013-01-02 02:09:00,
2013-01-01 18:14:00,51.4,36.2,30.06,WSW,247,0.0,0.0,56,0.00,,,0.00,WUHU21623XXSP,2013-01-02 02:14:00,
2013-01-01 18:19:00,51.3,36.2,30.06,WSW,247,0.0,0.0,56,0.00,,,0.00,WUHU21623XXSP,2013-01-02 02:19:00,
2013-01-01 18:24:00,51.1,35.9,30.06,WSW,247,0.0,0.0,56,0.00,,,0.00,WUHU21623XXSP,2013-01-02 02:24:00,
2013-01-01 18:29:00,50.7,36.0,30.06,WSW,247,0.0,0.0,57,0.00,,,0.00,WUHU21623XXSP,2013-01-02 02:29:00,
2013-01-01 18:34:00,50.7,36.0,30.06,WSW,247,0.0,0.0,57,0.00,,,0.00,WUHU21623XXSP,2013-01-02 02:34:00,
2013-01-01 18:39:00,50.5,36.3,30.07,WSW,247,0.0,0.0,58,0.00,,,0.00,WUHU21623XXSP,2013-01-02 02:39:00,
2013-01-01 18:44:00,50.2,35.9,30.06,WSW,247,0.0,0.0,58,0.00,,,0.00,WUHU21623XXSP,2013-01-02 02:44:00,
2013-01-01 18:49:00,50.0,36.2,30.06,WSW,247,0.0,0.0,59,0.00,,,0.00,WUHU21623XXSP,2013-01-02 02:49:00,
2013-01-01 18:54:00,49.8,36.5,30.06,WSW,247,0.0,0.0,60,0.00,,,0.00,WUHU21623XXSP,2013-01-02 02:54:00,
2013-01-01 18:59:00,49.6,36.4,30.07,WSW,247,0.0,0.0,60,0.00,,,0.00,WUHU21623XXSP,2013-01-02 02:59:00,
2013-01-01 19:04:00,49.3,36.0,30.06,WSW,247,0.0,0.0,60,0.00,,,0.00,WUHU21623XXSP,2013-01-02 03:04:00,
2013-01-01 19:09:00,49.1,35.9,30.07,WSW,247,0.0,0.0,60,0.00,,,0.00,WUHU21623XXSP,2013-01-02 03:09:00,
2013-01-01 19:14:00,48.7,35.9,30.07,WSW,247,0.0,0.0,61,0.00,,,0.00,WUHU21623XXSP,2013-01-02 03:14:00,
2013-01-01 19:19:00,48.4,36.0,30.07,WSW,247,0.0,0.0,62,0.00,,,0.00,WUHU21623XXSP,2013-01-02 03:19:00,
2013-01-01 19:24:00,48.0,35.6,30.07,WSW,247,0.0,0.0,62,0.00,,,0.00,WUHU21623XXSP,2013-01-02 03:24:00,
2013-01-01 19:29:00,47.7,35.5,30.07,WSW,247,0.0,0.0,62,0.00,,,0.00,WUHU21623XXSP,2013-01-02 03:29:00,
2013-01-01 19:34:00,47.3,35.3,30.07,WSW,247,0.0,0.0,63,0.00,,,0.00,WUHU21623XXSP,2013-01-02 03:34:00,
2013-01-01 19:39:00,47.1,35.1,30.07,WSW,247,0.0,0.0,63,0.00,,,0.00,WUHU21623XXSP,2013-01-02 03:39:00,
2013-01-01 19:44:00,46.6,35.0,30.07,WSW,247,0.0,0.0,64,0.00,,,0.00,WUHU21623XXSP,2013-01-02 03:44:00,
2013-01-01 19:49:00,46.2,34.7,30.07,WSW,247,0.0,0.0,64,0.00,,,0.00,WUHU21623XXSP,2013-01-02 03:49:00,
2013-01-01 19:54:00,46.0,34.5,30.07,WSW,247,0.0,0.0,64,0.00,,,0.00,WUHU21623XXSP,2013-01-02 03:54:00,
2013-01-01 19:59:00,45.5,34.4,30.07,WSW,247,0.0,0.0,65,0.00,,,0.00,WUHU21623XXSP,2013-01-02 03:59:00,
2013-01-01 20:04:00,45.3,34.2,30.07,WSW,247,0.0,0.0,65,0.00,,,0.00,WUHU21623XXSP,2013-01-02 04:04:00,
2013-01-01 20:09:00,45.1,34.0,30.07,WSW,247,0.0,0.0,65,0.00,,,0.00,WUHU21623XXSP,2013-01-02 04:09:00,
2013-01-01 20:14:00,44.8,33.7,30.07,WSW,247,0.0,0.0,65,0.00,,,0.00,WUHU21623XXSP,2013-01-02 04:14:00,
2013-01-01 20:19:00,44.4,33.4,30.07,WSW,247,0.0,0.0,65,0.00,,,0.00,WUHU21623XXSP,2013-01-02 04:19:00,
2013-01-01 20:24:00,44.2,33.2,30.07,WSW,247,0.0,0.0,65,0.00,,,0.00,WUHU21623XXSP,2013-01-02 04:24:00,
2013-01-01 20:29:00,43.5,32.5,30.08,WSW,247,0.0,0.0,65,0.00,,,0.00,WUHU21623XXSP,2013-01-02 04:29:00,
2013-01-01 20:34:00,43.3,32.7,30.08,WSW,247,0.0,0.0,66,0.00,,,0.00,WUHU21623XXSP,2013-01-02 04:34:00,
2013-01-01 20:39:00,43.0,32.4,30.08,WSW,247,0.0,0.0,66,0.00,,,0.00,WUHU21623XXSP,2013-01-02 04:39:00,
2013-01-01 20:44:00,42.6,32.4,30.08,WSW,247,0.0,0.0,67,0.00,,,0.00,WUHU21623XXSP,2013-01-02 04:44:00,
2013-01-01 20:50:00,42.6,32.8,30.08,WSW,247,0.0,0.0,68,0.00,,,0.00,WUHU21623XXSP,2013-01-02 04:50:00,
2013-01-01 20:55:00,42.4,32.6,30.09,WSW,247,0.0,0.0,68,0.00,,,0.00,WUHU21623XXSP,2013-01-02 04:55:00,
2013-01-01 21:00:00,42.1,32.7,30.09,WSW,247,0.0,0.0,69,0.00,,,0.00,WUHU21623XXSP,2013-01-02 05:00:00,
2013-01-01 21:01:00,42.1,32.7,30.09,WSW,247,0.0,0.0,69,0.00,,,0.00,WUHU21623XXSP,2013-01-02 05:01:00,
2013-01-01 21:02:00,42.1,32.7,30.09,WSW,247,0.0,0.0,69,0.00,,,0.00,WUHU21623XXSP,2013-01-02 05:02:00,
2013-01-01 21:07:00,41.9,32.5,30.08,WSW,247,0.0,0.0,69,0.00,,,0.00,WUHU21623XXSP,2013-01-02 05:07:00,
2013-01-01 21:12:00,41.7,32.3,30.09,WSW,247,0.0,0.0,69,0.00,,,0.00,WUHU21623XXSP,2013-01-02 05:12:00,
2013-01-01 21:17:00,41.7,32.7,30.09,WSW,247,0.0,0.0,70,0.00,,,0.00,WUHU21623XXSP,2013-01-02 05:17:00,
2013-01-01 21:22:00,41.5,32.5,30.09,WSW,247,0.0,0.0,70,0.00,,,0.00,WUHU21623XXSP,2013-01-02 05:22:00,
2013-01-01 21:27:00,41.4,32.7,30.09,WSW,247,0.0,0.0,71,0.00,,,0.00,WUHU21623XXSP,2013-01-02 05:27:00,
2013-01-01 21:32:00,41.4,32.4,30.09,WSW,247,0.0,0.0,70,0.00,,,0.00,WUHU21623XXSP,2013-01-02 05:32:00,
2013-01-01 21:37:00,41.2,32.5,30.09,WSW,247,0.0,0.0,71,0.00,,,0.00,WUHU21623XXSP,2013-01-02 05:37:00,
2013-01-01 21:42:00,41.0,32.3,30.09,WSW,247,0.0,0.0,71,0.00,,,0.00,WUHU21623XXSP,2013-01-02 05:42:00,
2013-01-01 21:47:00,40.8,31.8,30.09,WSW,247,0.0,0.0,70,0.00,,,0.00,WUHU21623XXSP,2013-01-02 05:47:00,
2013-01-01 21:52:00,40.8,31.8,30.09,WSW,247,0.0,0.0,70,0.00,,,0.00,WUHU21623XXSP,2013-01-02 05:52:00,
2013-01-01 21:57:00,40.6,31.6,30.08,WSW,247,0.0,0.0,70,0.00,,,0.00,WUHU21623XXSP,2013-01-02 05:57:00,
2013-01-01 22:02:00,40.6,31.6,30.08,WSW,247,0.0,0.0,70,0.00,,,0.00,WUHU21623XXSP,2013-01-02 06:02:00,
2013-01-01 22:07:00,40.5,31.5,30.08,WSW,247,0.0,0.0,70,0.00,,,0.00,WUHU21623XXSP,2013-01-02 06:07:00,
2013-01-01 22:12:00,40.3,31.3,30.09,WSW,247,0.0,0.0,70,0.00,,,0.00,WUHU21623XXSP,2013-01-02 06:12:00,
2013-01-01 22:17:00,40.1,31.1,30.09,WSW,247,0.0,0.0,70,0.00,,,0.00,WUHU21623XXSP,2013-01-02 06:17:00,
2013-01-01 22:23:00,39.9,30.9,30.08,WSW,247,0.0,0.0,70,0.00,,,0.00,WUHU21623XXSP,2013-01-02 06:23:00,
2013-01-01 22:28:00,39.9,30.9,30.09,WSW,247,0.0,0.0,70,0.00,,,0.00,WUHU21623XXSP,2013-01-02 06:28:00,
2013-01-01 22:33:00,39.7,30.7,30.08,WSW,247,0.0,0.0,70,0.00,,,0.00,WUHU21623XXSP,2013-01-02 06:33:00,
2013-01-01 22:38:00,39.4,30.4,30.08,WSW,247,0.0,0.0,70,0.00,,,0.00,WUHU21623XXSP,2013-01-02 06:38:00,
2013-01-01 22:43:00,39.4,30.7,30.08,WSW,247,0.0,0.0,71,0.00,,,0.00,WUHU21623XXSP,2013-01-02 06:43:00,
2013-01-01 22:48:00,39.2,30.5,30.08,WSW,247,0.0,0.0,71,0.00,,,0.00,WUHU21623XXSP,2013-01-02 06:48:00,
2013-01-01 22:53:00,39.0,30.4,30.08,WSW,247,0.0,0.0,71,0.00,,,0.00,WUHU21623XXSP,2013-01-02 06:53:00,
2013-01-01 22:58:00,39.0,30.4,30.08,WSW,247,0.0,0.0,71,0.00,,,0.00,WUHU21623XXSP,2013-01-02 06:58:00,
2013-01-01 23:03:00,39.0,30.4,30.08,WSW,247,0.0,0.0,71,0.00,,,0.00,WUHU21623XXSP,2013-01-02 07:03:00,
2013-01-01 23:08:00,39.0,30.4,30.08,WSW,247,0.0,0.0,71,0.00,,,0.00,WUHU21623XXSP,2013-01-02 07:08:00,
2013-01-01 23:13:00,38.8,30.2,30.08,WSW,247,0.0,0.0,71,0.00,,,0.00,WUHU21623XXSP,2013-01-02 07:13:00,
2013-01-01 23:18:00,38.8,30.2,30.08,WSW,247,0.0,0.0,71,0.00,,,0.00,WUHU21623XXSP,2013-01-02 07:18:00,
2013-01-01 23:23:00,38.8,30.2,30.08,WSW,247,0.0,0.0,71,0.00,,,0.00,WUHU21623XXSP,2013-01-02 07:23:00,
2013-01-01 23:28:00,38.5,29.9,30.08,WSW,247,0.0,0.0,71,0.00,,,0.00,WUHU21623XXSP,2013-01-02 07:28:00,
2013-01-01 23:33:00,38.5,29.9,30.08,WSW,247,0.0,0.0,71,0.00,,,0.00,WUHU21623XXSP,2013-01-02 07:33:00,
2013-01-01 23:38:00,38.5,29.9,30.08,WSW,247,0.0,0.0,71,0.00,,,0.00,WUHU21623XXSP,2013-01-02 07:38:00,
2013-01-01 23:43:00,38.3,29.7,30.08,WSW,247,0.0,0.0,71,0.00,,,0.00,WUHU21623XXSP,2013-01-02 07:43:00,
2013-01-01 23:48:00,38.3,29.7,30.08,WSW,247,0.0,0.0,71,0.00,,,0.00,WUHU21623XXSP,2013-01-02 07:48:00,
2013-01-01 23:53:00,38.1,29.6,30.08,WSW,247,0.0,0.0,71,0.00,,,0.00,WUHU21623XXSP,2013-01-02 07:53:00,
2013-01-01 23:58:00,38.1,29.6,30.07,WSW,247,0.0,0.0,71,0.00,,,0.00,WUHU21623XXSP,2013-01-02 07:58:00,